03-12-2023, 00:00:05,    151,    0.0,   -2.8,   0.00,   0.00, 1010.6,    0.4, -999.0
03-12-2023, 00:00:15,    151,    0.3,   -2.8,   0.00,   0.00, 1010.6,    0.3, -999.0
03-12-2023, 00:00:25,    151,    0.0,   -2.7,   0.00,   0.00, 1010.6,    0.7, -999.0
03-12-2023, 00:00:35,    151,    0.0,   -2.8,   0.00,   0.00, 1010.6,    0.4, -999.0
03-12-2023, 00:00:45,    155,    0.0,   -2.8,   0.00,   0.00, 1010.6,    0.7, -999.0
03-12-2023, 00:00:55,    149,    0.8,   -2.6,   0.00,   0.00, 1010.7,    0.3, -999.0
03-12-2023, 00:01:05,    150,    0.5,   -2.7,   0.00,   0.00, 1010.7,    0.7, -999.0
03-12-2023, 00:01:15,    150,    0.2,   -2.7,   0.00,   0.00, 1010.7,    0.5, -999.0
03-12-2023, 00:01:24,    150,    0.0,   -2.8,   0.00,   0.00, 1010.6,    0.4, -999.0
03-12-2023, 00:01:35,    150,    0.0,   -2.8,   0.00,   0.00, 1010.6,    0.3, -999.0
03-12-2023, 00:01:45,    150,    0.0,   -2.8,   0.00,   0.00, 1010.6,    0.4, -999.0
03-12-2023, 00:01:55,    150,    0.0,   -2.8,   0.00,   0.00, 1010.6,    0.6, -999.0
03-12-2023, 00:02:05,    172,    0.0,   -2.9,   0.00,   0.00, 1010.6,    0.4, -999.0
03-12-2023, 00:02:15,    172,    0.0,   -2.8,   0.00,   0.00, 1010.6,    0.4, -999.0
03-12-2023, 00:02:25,    172,    0.0,   -2.8,   0.00,   0.00, 1010.6,    0.5, -999.0
03-12-2023, 00:02:34,    160,    0.0,   -2.7,   0.00,   0.00, 1010.6,    0.5, -999.0
03-12-2023, 00:02:45,    159,    0.4,   -2.7,   0.00,   0.00, 1010.7,    0.6, -999.0
03-12-2023, 00:02:55,    160,    0.0,   -2.7,   0.00,   0.00, 1010.6,    0.5, -999.0
03-12-2023, 00:03:05,    159,    0.1,   -2.7,   0.00,   0.00, 1010.7,    0.6, -999.0
03-12-2023, 00:03:14,    160,    0.1,   -2.6,   0.00,   0.00, 1010.6,    0.6, -999.0
03-12-2023, 00:03:25,    160,    0.0,   -2.7,   0.00,   0.00, 1010.6,    0.6, -999.0
03-12-2023, 00:03:35,    160,    0.0,   -2.7,   0.00,   0.00, 1010.6,    0.4, -999.0
03-12-2023, 00:03:45,    159,    0.2,   -2.7,   0.00,   0.00, 1010.6,    0.5, -999.0
03-12-2023, 00:03:54,    159,    0.1,   -2.6,   0.00,   0.00, 1010.6,    0.5, -999.0
03-12-2023, 00:04:05,    190,    0.1,   -2.7,   0.00,   0.00, 1010.6,    0.4, -999.0
03-12-2023, 00:04:15,    190,    0.0,   -2.8,   0.00,   0.00, 1010.6,    0.5, -999.0
03-12-2023, 00:04:24,    190,    0.0,   -2.7,   0.00,   0.00, 1010.6,    0.5, -999.0
03-12-2023, 00:04:34,    149,    0.5,   -2.6,   0.00,   0.00, 1010.7,    0.5, -999.0
03-12-2023, 00:04:45,    149,    0.5,   -2.7,   0.00,   0.00, 1010.6,    0.2, -999.0
03-12-2023, 00:04:55,    148,    0.0,   -2.6,   0.00,   0.00, 1010.5,    0.4, -999.0
03-12-2023, 00:05:04,    149,    0.0,   -2.7,   0.00,   0.00, 1010.6,    0.4, -999.0
03-12-2023, 00:05:14,    148,    0.0,   -2.7,   0.00,   0.00, 1010.6,    0.5, -999.0
03-12-2023, 00:05:25,    148,    0.0,   -2.7,   0.00,   0.00, 1010.6,    0.3, -999.0
03-12-2023, 00:05:35,    149,    0.0,   -2.7,   0.00,   0.00, 1010.6,    0.5, -999.0
03-12-2023, 00:05:44,    149,    0.3,   -2.7,   0.00,   0.00, 1010.6,    0.7, -999.0
03-12-2023, 00:05:54,    148,    0.0,   -2.7,   0.00,   0.00, 1010.5,    0.4, -999.0
03-12-2023, 00:06:05,    149,    0.0,   -2.7,   0.00,   0.00, 1010.5,    0.4, -999.0
03-12-2023, 00:06:14,    148,    0.0,   -2.7,   0.00,   0.00, 1010.5,    0.4, -999.0
03-12-2023, 00:06:24,    149,    0.0,   -2.6,   0.00,   0.00, 1010.5,    0.6, -999.0
03-12-2023, 00:06:34,    148,    0.0,   -2.7,   0.00,   0.00, 1010.5,    0.4, -999.0
03-12-2023, 00:06:44,    161,    0.0,   -2.6,   0.00,   0.00, 1010.5,    0.3, -999.0
03-12-2023, 00:06:54,    161,    0.0,   -2.6,   0.00,   0.00, 1010.5,    0.4, -999.0
03-12-2023, 00:07:04,    161,    0.0,   -2.6,   0.00,   0.00, 1010.5,    0.2, -999.0
03-12-2023, 00:07:14,    161,    0.0,   -2.5,   0.00,   0.00, 1010.5,    0.4, -999.0
03-12-2023, 00:07:24,    161,    0.0,   -2.5,   0.00,   0.00, 1010.4,    0.4, -999.0
03-12-2023, 00:07:34,    161,    0.0,   -2.4,   0.00,   0.00, 1010.4,    0.5, -999.0
03-12-2023, 00:07:44,    161,    0.0,   -2.6,   0.00,   0.00, 1010.4,    0.4, -999.0
03-12-2023, 00:07:54,    161,    0.0,   -2.6,   0.00,   0.00, 1010.4,    0.5, -999.0
03-12-2023, 00:08:04,    161,    0.0,   -2.6,   0.00,   0.00, 1010.4,    0.3, -999.0
03-12-2023, 00:08:14,    161,    0.0,   -2.7,   0.00,   0.00, 1010.4,    0.4, -999.0
03-12-2023, 00:08:24,    161,    0.0,   -2.6,   0.00,   0.00, 1010.4,    0.4, -999.0
03-12-2023, 00:08:34,    161,    0.0,   -2.6,   0.00,   0.00, 1010.4,    0.5, -999.0
03-12-2023, 00:08:44,    171,    0.0,   -2.6,   0.00,   0.00, 1010.4,    0.5, -999.0
03-12-2023, 00:08:54,    123,    0.0,   -2.7,   0.00,   0.00, 1010.4,    0.5, -999.0
03-12-2023, 00:09:04,    129,    0.0,   -2.7,   0.00,   0.00, 1010.4,    0.3, -999.0
03-12-2023, 00:09:14,    143,    0.0,   -2.6,   0.00,   0.00, 1010.4,    0.5, -999.0
03-12-2023, 00:09:24,    143,    0.0,   -2.6,   0.00,   0.00, 1010.4,    0.4, -999.0
03-12-2023, 00:09:34,    144,    0.0,   -2.7,   0.00,   0.00, 1010.4,    0.2, -999.0
03-12-2023, 00:09:44,    155,    0.0,   -2.7,   0.00,   0.00, 1010.4,    0.4, -999.0
03-12-2023, 00:09:54,    156,    0.0,   -2.6,   0.00,   0.00, 1010.4,    0.5, -999.0
03-12-2023, 00:10:04,    155,    0.0,   -2.6,   0.00,   0.01, 1010.4,    0.4, -999.0
03-12-2023, 00:10:14,    155,    0.0,   -2.6,   0.00,   0.00, 1010.4,    0.4, -999.0
03-12-2023, 00:10:24,    155,    0.0,   -2.6,   0.00,   0.00, 1010.4,    0.4, -999.0
03-12-2023, 00:10:34,    156,    0.0,   -2.6,   0.00,   0.00, 1010.4,    0.4, -999.0
03-12-2023, 00:10:44,    155,    0.0,   -2.6,   0.00,   0.00, 1010.4,    0.4, -999.0
03-12-2023, 00:10:54,    156,    0.0,   -2.6,   0.00,   0.00, 1010.4,    0.4, -999.0
03-12-2023, 00:11:04,    156,    0.0,   -2.6,   0.00,   0.00, 1010.4,    0.3, -999.0
03-12-2023, 00:11:14,    156,    0.0,   -2.6,   0.00,   0.00, 1010.4,    0.3, -999.0
03-12-2023, 00:11:24,    156,    0.0,   -2.5,   0.00,   0.00, 1010.4,    0.3, -999.0
03-12-2023, 00:11:34,    156,    0.0,   -2.5,   0.00,   0.00, 1010.4,    0.3, -999.0
03-12-2023, 00:11:44,    156,    0.0,   -2.5,   0.00,   0.00, 1010.4,    0.5, -999.0
03-12-2023, 00:11:54,    156,    0.0,   -2.6,   0.00,   0.00, 1010.4,    0.2, -999.0
03-12-2023, 00:12:04,    156,    0.0,   -2.6,   0.00,   0.00, 1010.4,    0.5, -999.0
03-12-2023, 00:12:14,    156,    0.0,   -2.6,   0.00,   0.00, 1010.4,    0.5, -999.0
03-12-2023, 00:12:24,    156,    0.0,   -2.5,   0.01,   0.01, 1010.4,    0.4, -999.0
03-12-2023, 00:12:34,    157,    0.0,   -2.6,   0.00,   0.00, 1010.4,    0.5, -999.0
03-12-2023, 00:12:44,    156,    0.0,   -2.5,   0.00,   0.00, 1010.4,    0.2, -999.0
03-12-2023, 00:12:54,    156,    0.0,   -2.5,   0.00,   0.00, 1010.4,    0.3, -999.0
03-12-2023, 00:13:04,    156,    0.0,   -2.5,   0.00,   0.00, 1010.4,    0.4, -999.0
03-12-2023, 00:13:14,    156,    0.0,   -2.5,   0.00,   0.00, 1010.4,    0.5, -999.0
03-12-2023, 00:13:24,    156,    0.0,   -2.5,   0.00,   0.00, 1010.4,    0.3, -999.0
03-12-2023, 00:13:34,    156,    0.0,   -2.5,   0.00,   0.00, 1010.4,    0.4, -999.0
03-12-2023, 00:13:44,    155,    0.0,   -2.4,   0.00,   0.00, 1010.4,    0.4, -999.0
03-12-2023, 00:13:54,    155,    0.0,   -2.4,   0.00,   0.00, 1010.4,    0.4, -999.0
03-12-2023, 00:14:04,    154,    0.0,   -2.4,   0.00,   0.00, 1010.4,    0.4, -999.0
03-12-2023, 00:14:14,    155,    0.0,   -2.4,   0.00,   0.00, 1010.4,    0.3, -999.0
03-12-2023, 00:14:24,    155,    0.0,   -2.5,   0.00,   0.00, 1010.4,    0.3, -999.0
03-12-2023, 00:14:34,    155,    0.0,   -2.5,   0.00,   0.00, 1010.4,    0.4, -999.0
03-12-2023, 00:14:44,    154,    0.0,   -2.6,   0.01,   0.01, 1010.4,    0.5, -999.0
03-12-2023, 00:14:54,    155,    0.0,   -2.4,   0.00,   0.00, 1010.4,    0.4, -999.0
03-12-2023, 00:15:04,    155,    0.0,   -2.4,   0.00,   0.00, 1010.4,    0.4, -999.0
03-12-2023, 00:15:14,    154,    0.0,   -2.5,   0.00,   0.00, 1010.4,    0.5, -999.0
03-12-2023, 00:15:24,    154,    0.0,   -2.5,   0.00,   0.00, 1010.4,    0.4, -999.0
03-12-2023, 00:15:33,    154,    0.0,   -2.5,   0.00,   0.00, 1010.4,    0.3, -999.0
03-12-2023, 00:15:44,    172,    0.0,   -2.5,   0.00,   0.00, 1010.4,    0.4, -999.0
03-12-2023, 00:15:54,    155,    1.3,   -2.4,   0.01,   0.00, 1010.6,    0.0, -999.0
03-12-2023, 00:16:04,    178,    0.8,   -2.3,   0.00,   0.00, 1010.6,    0.5, -999.0
03-12-2023, 00:16:14,    177,    0.1,   -2.4,   0.00,   0.00, 1010.5,    0.5, -999.0
03-12-2023, 00:16:24,    177,    0.0,   -2.4,   0.00,   0.00, 1010.4,    0.5, -999.0
03-12-2023, 00:16:34,    177,    0.0,   -2.5,   0.00,   0.00, 1010.4,    0.2, -999.0
03-12-2023, 00:16:43,    176,    0.0,   -2.4,   0.00,   0.00, 1010.4,    0.5, -999.0
03-12-2023, 00:16:54,    176,    0.0,   -2.4,   0.00,   0.00, 1010.4,    0.4, -999.0
03-12-2023, 00:17:04,    177,    0.0,   -2.4,   0.00,   0.01, 1010.4,    0.4, -999.0
03-12-2023, 00:17:13,    176,    0.0,   -2.4,   0.00,   0.00, 1010.4,    0.5, -999.0
03-12-2023, 00:17:23,    176,    0.0,   -2.4,   0.00,   0.00, 1010.4,    0.4, -999.0
03-12-2023, 00:17:34,    177,    0.0,   -2.4,   0.00,   0.00, 1010.4,    0.3, -999.0
03-12-2023, 00:17:44,    176,    0.0,   -2.4,   0.00,   0.00, 1010.4,    0.4, -999.0
03-12-2023, 00:17:53,    177,    0.0,   -2.3,   0.00,   0.00, 1010.4,    0.4, -999.0
03-12-2023, 00:18:03,    176,    0.0,   -2.3,   0.00,   0.00, 1010.4,    0.3, -999.0
03-12-2023, 00:18:14,    176,    0.0,   -2.4,   0.00,   0.00, 1010.4,    0.4, -999.0
03-12-2023, 00:18:24,    177,    0.0,   -2.4,   0.00,   0.00, 1010.4,    0.5, -999.0
03-12-2023, 00:18:33,    176,    0.0,   -2.3,   0.00,   0.00, 1010.4,    0.3, -999.0
03-12-2023, 00:18:43,    176,    0.0,   -2.3,   0.00,   0.00, 1010.4,    0.4, -999.0
03-12-2023, 00:18:54,    177,    0.0,   -2.3,   0.00,   0.00, 1010.4,    0.4, -999.0
03-12-2023, 00:19:03,    176,    0.0,   -2.3,   0.01,   0.01, 1010.4,    0.4, -999.0
03-12-2023, 00:19:13,    177,    0.0,   -2.4,   0.00,   0.00, 1010.4,    0.3, -999.0
03-12-2023, 00:19:24,    177,    0.0,   -2.3,   0.00,   0.00, 1010.4,    0.2, -999.0
03-12-2023, 00:19:33,    177,    0.0,   -2.3,   0.00,   0.00, 1010.4,    0.2, -999.0
03-12-2023, 00:19:43,    176,    0.0,   -2.4,   0.00,   0.00, 1010.4,    0.5, -999.0
03-12-2023, 00:19:53,    176,    0.0,   -2.3,   0.00,   0.00, 1010.4,    0.5, -999.0
03-12-2023, 00:20:04,    177,    0.0,   -2.3,   0.00,   0.00, 1010.4,    0.4, -999.0
03-12-2023, 00:20:13,    176,    0.0,   -2.3,   0.00,   0.00, 1010.4,    0.4, -999.0
03-12-2023, 00:20:23,    177,    0.0,   -2.3,   0.00,   0.00, 1010.4,    0.4, -999.0
03-12-2023, 00:20:33,    176,    0.0,   -2.2,   0.00,   0.00, 1010.4,    0.5, -999.0
03-12-2023, 00:20:43,    176,    0.0,   -2.3,   0.00,   0.00, 1010.4,    0.6, -999.0
03-12-2023, 00:20:53,    176,    0.0,   -2.3,   0.01,   0.01, 1010.4,    0.4, -999.0
03-12-2023, 00:21:03,    177,    0.0,   -2.3,   0.00,   0.00, 1010.4,    0.5, -999.0
03-12-2023, 00:21:14,    176,    0.0,   -2.3,   0.00,   0.00, 1010.4,    0.5, -999.0
03-12-2023, 00:21:23,    176,    0.0,   -2.3,   0.00,   0.00, 1010.4,    0.3, -999.0
03-12-2023, 00:21:33,    176,    0.0,   -2.3,   0.00,   0.00, 1010.4,    0.4, -999.0
03-12-2023, 00:21:43,    176,    0.0,   -2.3,   0.00,   0.00, 1010.4,    0.2, -999.0
03-12-2023, 00:21:53,    176,    0.0,   -2.3,   0.00,   0.00, 1010.4,    0.5, -999.0
03-12-2023, 00:22:03,    176,    0.0,   -2.3,   0.00,   0.00, 1010.4,    0.3, -999.0
03-12-2023, 00:22:13,    176,    0.0,   -2.4,   0.00,   0.00, 1010.4,    0.4, -999.0
03-12-2023, 00:22:23,    177,    0.0,   -2.3,   0.00,   0.00, 1010.4,    0.5, -999.0
03-12-2023, 00:22:33,    176,    0.0,   -2.4,   0.01,   0.01, 1010.4,    0.4, -999.0
03-12-2023, 00:22:43,    176,    0.0,   -2.2,   0.00,   0.00, 1010.4,    0.5, -999.0
03-12-2023, 00:22:53,    177,    0.0,   -2.3,   0.00,   0.00, 1010.4,    0.5, -999.0
03-12-2023, 00:23:03,    177,    0.0,   -2.2,   0.00,   0.00, 1010.4,    0.4, -999.0
03-12-2023, 00:23:13,    176,    0.0,   -2.3,   0.00,   0.00, 1010.4,    0.5, -999.0
03-12-2023, 00:23:23,    176,    0.0,   -2.2,   0.00,   0.00, 1010.4,    0.6, -999.0
03-12-2023, 00:23:33,    177,    0.0,   -2.3,   0.00,   0.00, 1010.4,    0.4, -999.0
03-12-2023, 00:23:43,    177,    0.0,   -2.3,   0.00,   0.00, 1010.4,    0.4, -999.0
03-12-2023, 00:23:53,    176,    0.0,   -2.2,   0.00,   0.00, 1010.4,    0.4, -999.0
03-12-2023, 00:24:03,    176,    0.0,   -2.3,   0.00,   0.00, 1010.3,    0.3, -999.0
03-12-2023, 00:24:13,    176,    0.0,   -2.2,   0.01,   0.01, 1010.3,    0.2, -999.0
03-12-2023, 00:24:23,    130,    0.0,   -2.2,   0.00,   0.00, 1010.3,    0.4, -999.0
03-12-2023, 00:24:33,    143,    0.0,   -2.2,   0.00,   0.00, 1010.4,    0.1, -999.0
03-12-2023, 00:24:43,    144,    0.0,   -2.2,   0.00,   0.00, 1010.4,    0.6, -999.0
03-12-2023, 00:24:53,    144,    0.0,   -2.2,   0.00,   0.00, 1010.4,    0.2, -999.0
03-12-2023, 00:25:03,    144,    0.0,   -2.3,   0.00,   0.00, 1010.4,    0.0, -999.0
03-12-2023, 00:25:13,    145,    0.0,   -2.3,   0.00,   0.00, 1010.4,    0.4, -999.0
03-12-2023, 00:25:23,    148,    0.0,   -2.2,   0.00,   0.00, 1010.3,    0.3, -999.0
03-12-2023, 00:25:33,    148,    0.0,   -2.2,   0.00,   0.00, 1010.3,    0.4, -999.0
03-12-2023, 00:25:43,    148,    0.0,   -2.3,   0.01,   0.01, 1010.3,    0.4, -999.0
03-12-2023, 00:25:53,    148,    0.0,   -2.3,   0.00,   0.00, 1010.3,    0.4, -999.0
03-12-2023, 00:26:03,    148,    0.0,   -2.3,   0.00,   0.00, 1010.3,    0.5, -999.0
03-12-2023, 00:26:13,    148,    0.0,   -2.3,   0.00,   0.00, 1010.3,    0.4, -999.0
03-12-2023, 00:26:23,    148,    0.0,   -2.3,   0.00,   0.00, 1010.3,    0.4, -999.0
03-12-2023, 00:26:33,    148,    0.0,   -2.2,   0.00,   0.00, 1010.3,    0.3, -999.0
03-12-2023, 00:26:43,    148,    0.0,   -2.3,   0.00,   0.00, 1010.4,    0.6, -999.0
03-12-2023, 00:26:53,    148,    0.0,   -2.3,   0.00,   0.00, 1010.3,    0.4, -999.0
03-12-2023, 00:27:03,    148,    0.0,   -2.3,   0.00,   0.00, 1010.3,    0.2, -999.0
03-12-2023, 00:27:13,    148,    0.0,   -2.2,   0.01,   0.01, 1010.3,    0.3, -999.0
03-12-2023, 00:27:23,    159,    0.0,   -2.3,   0.00,   0.00, 1010.3,    0.4, -999.0
03-12-2023, 00:27:33,    159,    0.0,   -2.3,   0.00,   0.00, 1010.3,    0.3, -999.0
03-12-2023, 00:27:43,    160,    0.0,   -2.3,   0.00,   0.00, 1010.3,    0.5, -999.0
03-12-2023, 00:27:53,    165,    0.0,   -2.3,   0.00,   0.00, 1010.3,    0.4, -999.0
03-12-2023, 00:28:03,    164,    0.0,   -2.2,   0.00,   0.00, 1010.3,    0.3, -999.0
03-12-2023, 00:28:13,    163,    0.0,   -2.3,   0.00,   0.00, 1010.3,    0.3, -999.0
03-12-2023, 00:28:23,    164,    0.0,   -2.4,   0.00,   0.00, 1010.3,    0.3, -999.0
03-12-2023, 00:28:33,    164,    0.0,   -2.3,   0.00,   0.00, 1010.3,    0.3, -999.0
03-12-2023, 00:28:43,    163,    0.0,   -2.3,   0.01,   0.01, 1010.3,    0.3, -999.0
03-12-2023, 00:28:52,    164,    0.0,   -2.3,   0.00,   0.00, 1010.3,    0.2, -999.0
03-12-2023, 00:29:03,    171,    0.0,   -2.3,   0.00,   0.00, 1010.2,    0.3, -999.0
03-12-2023, 00:29:13,    164,    0.0,   -2.3,   0.00,   0.00, 1010.3,    0.3, -999.0
03-12-2023, 00:29:23,    163,    0.0,   -2.3,   0.00,   0.00, 1010.2,    0.5, -999.0
03-12-2023, 00:29:32,    164,    0.0,   -2.2,   0.00,   0.00, 1010.3,    0.7, -999.0
03-12-2023, 00:29:43,    163,    0.0,   -2.2,   0.00,   0.00, 1010.2,    0.4, -999.0
03-12-2023, 00:29:53,    163,    0.0,   -2.2,   0.00,   0.00, 1010.3,    0.3, -999.0
03-12-2023, 00:30:02,    164,    0.0,   -2.2,   0.00,   0.00, 1010.2,    0.5, -999.0
03-12-2023, 00:30:13,    164,    0.0,   -2.2,   0.01,   0.01, 1010.2,    0.3, -999.0
03-12-2023, 00:30:23,    163,    0.0,   -2.2,   0.01,   0.00, 1010.2,    0.2, -999.0
03-12-2023, 00:30:33,    141,    0.7,   -2.1,   0.00,   0.00, 1010.4,    0.4, -999.0
03-12-2023, 00:30:42,    141,    0.0,   -2.2,   0.00,   0.00, 1010.2,    0.4, -999.0
03-12-2023, 00:30:53,    141,    0.0,   -2.2,   0.00,   0.00, 1010.2,    0.4, -999.0
03-12-2023, 00:31:03,    141,    0.0,   -2.3,   0.00,   0.00, 1010.2,    0.3, -999.0
03-12-2023, 00:31:12,    143,    0.0,   -2.3,   0.00,   0.00, 1010.2,    0.3, -999.0
03-12-2023, 00:31:22,    147,    2.1,   -2.1,   0.00,   0.00, 1010.3,    0.5, -999.0
03-12-2023, 00:31:33,    128,    1.8,   -2.1,   0.00,   0.00, 1010.4,    0.3, -999.0
03-12-2023, 00:31:43,    128,    0.7,   -2.1,   0.01,   0.01, 1010.4,    0.3, -999.0
03-12-2023, 00:31:52,    128,    0.0,   -2.2,   0.00,   0.00, 1010.2,    0.5, -999.0
03-12-2023, 00:32:02,    145,    0.0,   -2.2,   0.00,   0.00, 1010.2,    0.5, -999.0
03-12-2023, 00:32:13,    146,    0.0,   -2.2,   0.00,   0.00, 1010.2,    0.3, -999.0
03-12-2023, 00:32:22,    145,    0.0,   -2.1,   0.00,   0.00, 1010.2,    0.3, -999.0
03-12-2023, 00:32:32,    145,    0.0,   -2.1,   0.00,   0.00, 1010.2,    0.4, -999.0
03-12-2023, 00:32:42,    211,    0.8,   -2.2,   0.00,   0.00, 1010.3,    0.1, -999.0
03-12-2023, 00:32:53,    139,    1.9,   -2.1,   0.00,   0.00, 1010.4,    0.4, -999.0
03-12-2023, 00:33:02,    142,    1.9,   -2.1,   0.00,   0.00, 1010.3,    0.6, -999.0
03-12-2023, 00:33:12,    157,    0.6,   -2.1,   0.00,   0.01, 1010.3,    0.5, -999.0
03-12-2023, 00:33:23,    157,    0.0,   -2.2,   0.00,   0.00, 1010.2,    0.3, -999.0
03-12-2023, 00:33:32,    157,    0.0,   -2.1,   0.00,   0.00, 1010.2,    0.3, -999.0
03-12-2023, 00:33:42,    153,    0.0,   -2.2,   0.00,   0.00, 1010.2,    0.3, -999.0
03-12-2023, 00:33:52,    140,    0.1,   -2.1,   0.01,   0.00, 1010.2,    0.3, -999.0
03-12-2023, 00:34:03,    140,    0.0,   -2.1,   0.00,   0.00, 1010.2,    0.4, -999.0
03-12-2023, 00:34:12,    140,    0.0,   -2.1,   0.00,   0.00, 1010.2,    0.3, -999.0
03-12-2023, 00:34:22,    140,    0.1,   -2.0,   0.00,   0.00, 1010.2,    0.3, -999.0
03-12-2023, 00:34:32,    137,    0.2,   -2.0,   0.00,   0.00, 1010.2,    0.5, -999.0
03-12-2023, 00:34:42,    137,    0.0,   -2.1,   0.00,   0.00, 1010.2,    0.3, -999.0
03-12-2023, 00:34:52,    137,    0.0,   -2.0,   0.00,   0.01, 1010.1,    0.3, -999.0
03-12-2023, 00:35:02,    144,    0.7,   -2.0,   0.01,   0.00, 1010.2,    0.4, -999.0
03-12-2023, 00:35:12,    157,    1.0,   -2.0,   0.00,   0.00, 1010.3,    0.3, -999.0
03-12-2023, 00:35:22,    140,    0.5,   -2.0,   0.00,   0.00, 1010.2,    0.4, -999.0
03-12-2023, 00:35:32,    147,    0.0,   -2.1,   0.00,   0.00, 1010.1,    0.6, -999.0
03-12-2023, 00:35:42,    175,    0.1,   -2.1,   0.00,   0.00, 1010.2,    0.3, -999.0
03-12-2023, 00:35:52,    175,    0.2,   -2.0,   0.00,   0.00, 1010.2,    0.4, -999.0
03-12-2023, 00:36:02,    172,    0.3,   -2.0,   0.00,   0.00, 1010.2,    0.6, -999.0
03-12-2023, 00:36:12,    110,    1.4,   -2.0,   0.00,   0.00, 1010.2,    0.4, -999.0
03-12-2023, 00:36:22,    125,    1.2,   -2.0,   0.01,   0.01, 1010.2,    0.6, -999.0
03-12-2023, 00:36:32,    126,    0.0,   -2.2,   0.00,   0.00, 1010.1,    0.3, -999.0
03-12-2023, 00:36:42,    159,    0.0,   -2.1,   0.00,   0.00, 1010.1,    0.3, -999.0
03-12-2023, 00:36:52,    159,    0.0,   -2.0,   0.00,   0.00, 1010.1,    0.2, -999.0
03-12-2023, 00:37:02,    159,    0.0,   -2.0,   0.00,   0.00, 1010.1,    0.3, -999.0
03-12-2023, 00:37:12,    160,    0.0,   -2.0,   0.00,   0.00, 1010.1,    0.4, -999.0
03-12-2023, 00:37:22,    160,    0.0,   -2.0,   0.00,   0.00, 1010.1,    0.2, -999.0
03-12-2023, 00:37:32,    160,    0.9,   -2.0,   0.00,   0.00, 1010.2,    0.4, -999.0
03-12-2023, 00:37:42,    160,    0.3,   -1.9,   0.00,   0.00, 1010.2,    0.3, -999.0
03-12-2023, 00:37:52,    159,    0.0,   -2.0,   0.00,   0.01, 1010.1,    0.4, -999.0
03-12-2023, 00:38:02,    160,    0.0,   -2.0,   0.00,   0.00, 1010.1,    0.3, -999.0
03-12-2023, 00:38:12,    159,    0.0,   -2.1,   0.00,   0.00, 1010.1,    0.3, -999.0
03-12-2023, 00:38:22,    159,    0.0,   -2.0,   0.00,   0.00, 1010.1,    0.5, -999.0
03-12-2023, 00:38:32,    159,    0.0,   -2.1,   0.00,   0.00, 1010.1,    0.3, -999.0
03-12-2023, 00:38:42,    160,    0.0,   -1.9,   0.00,   0.00, 1010.1,    0.3, -999.0
03-12-2023, 00:38:52,    159,    0.0,   -2.0,   0.00,   0.00, 1010.1,    0.3, -999.0
03-12-2023, 00:39:02,    120,    0.2,   -2.0,   0.01,   0.00, 1010.2,    0.4, -999.0
03-12-2023, 00:39:12,    144,    0.0,   -2.0,   0.00,   0.00, 1010.1,    0.3, -999.0
03-12-2023, 00:39:22,    145,    0.9,   -1.9,   0.00,   0.00, 1010.2,    0.3, -999.0
03-12-2023, 00:39:32,    144,    0.9,   -1.9,   0.00,   0.01, 1010.2,    0.5, -999.0
03-12-2023, 00:39:42,    142,    0.9,   -1.9,   0.00,   0.00, 1010.2,    0.5, -999.0
03-12-2023, 00:39:52,    159,    0.8,   -1.9,   0.00,   0.00, 1010.2,    0.3, -999.0
03-12-2023, 00:40:02,    163,    0.2,   -1.9,   0.00,   0.00, 1010.1,    0.3, -999.0
03-12-2023, 00:40:12,    162,    0.0,   -2.0,   0.00,   0.00, 1010.1,    0.4, -999.0
03-12-2023, 00:40:22,    162,    0.0,   -2.0,   0.00,   0.00, 1010.1,    0.5, -999.0
03-12-2023, 00:40:32,    163,    0.0,   -2.0,   0.00,   0.00, 1010.1,    0.4, -999.0
03-12-2023, 00:40:42,    152,    0.4,   -2.1,   0.00,   0.00, 1010.1,    0.5, -999.0
03-12-2023, 00:40:52,    162,    0.9,   -2.0,   0.00,   0.00, 1010.2,    0.5, -999.0
03-12-2023, 00:41:02,    129,    0.8,   -2.0,   0.00,   0.00, 1010.1,    0.3, -999.0
03-12-2023, 00:41:12,    143,    0.3,   -2.0,   0.00,   0.01, 1010.1,    0.4, -999.0
03-12-2023, 00:41:22,    142,    0.0,   -2.0,   0.00,   0.00, 1010.1,    0.3, -999.0
03-12-2023, 00:41:32,    142,    0.0,   -2.0,   0.00,   0.00, 1010.1,    0.3, -999.0
03-12-2023, 00:41:42,    143,    0.0,   -2.0,   0.00,   0.00, 1010.1,    0.2, -999.0
03-12-2023, 00:41:52,    143,    0.0,   -2.1,   0.00,   0.00, 1010.1,    0.4, -999.0
03-12-2023, 00:42:02,    143,    0.0,   -2.0,   0.00,   0.00, 1010.1,    0.4, -999.0
03-12-2023, 00:42:12,    143,    0.0,   -2.0,   0.00,   0.00, 1010.1,    0.3, -999.0
03-12-2023, 00:42:22,    143,    0.0,   -2.0,   0.00,   0.00, 1010.1,    0.3, -999.0
03-12-2023, 00:42:32,    143,    0.0,   -2.0,   0.00,   0.00, 1010.1,    0.4, -999.0
03-12-2023, 00:42:42,    143,    0.0,   -1.9,   0.00,   0.00, 1010.1,    0.4, -999.0
03-12-2023, 00:42:52,    143,    0.0,   -2.0,   0.00,   0.00, 1010.0,    0.3, -999.0
03-12-2023, 00:43:02,    142,    0.0,   -1.9,   0.01,   0.01, 1010.1,    0.4, -999.0
03-12-2023, 00:43:12,    142,    0.0,   -2.0,   0.00,   0.00, 1010.1,    0.2, -999.0
03-12-2023, 00:43:22,    143,    0.0,   -2.0,   0.00,   0.00, 1010.0,    0.4, -999.0
03-12-2023, 00:43:31,    142,    0.0,   -2.0,   0.00,   0.00, 1010.0,    0.3, -999.0
03-12-2023, 00:43:42,    142,    0.0,   -1.9,   0.00,   0.00, 1010.0,    0.3, -999.0
03-12-2023, 00:43:52,    142,    0.0,   -2.0,   0.00,   0.00, 1010.0,    0.3, -999.0
03-12-2023, 00:44:02,    176,    0.0,   -1.9,   0.00,   0.00, 1010.0,    0.3, -999.0
03-12-2023, 00:44:11,    188,    0.0,   -1.9,   0.00,   0.00, 1010.0,    0.4, -999.0
03-12-2023, 00:44:22,    188,    0.0,   -2.0,   0.00,   0.00, 1010.1,    0.3, -999.0
03-12-2023, 00:44:32,    188,    0.0,   -2.1,   0.00,   0.00, 1010.0,    0.4, -999.0
03-12-2023, 00:44:41,    188,    0.0,   -2.0,   0.00,   0.00, 1010.0,    0.5, -999.0
03-12-2023, 00:44:51,    188,    0.0,   -1.9,   0.01,   0.01, 1010.0,    0.4, -999.0
03-12-2023, 00:45:02,    188,    0.0,   -2.0,   0.00,   0.00, 1010.0,    0.3, -999.0
03-12-2023, 00:45:11,    188,    0.0,   -2.1,   0.00,   0.00, 1010.0,    0.4, -999.0
03-12-2023, 00:45:21,    188,    0.0,   -2.0,   0.00,   0.00, 1010.0,    0.3, -999.0
03-12-2023, 00:45:31,    188,    0.0,   -2.0,   0.00,   0.00, 1010.0,    0.5, -999.0
03-12-2023, 00:45:42,    192,    0.0,   -2.0,   0.00,   0.00, 1010.0,    0.3, -999.0
03-12-2023, 00:45:51,    175,    0.0,   -2.0,   0.00,   0.00, 1010.0,    0.4, -999.0
03-12-2023, 00:46:01,    179,    0.0,   -2.0,   0.01,   0.00, 1010.1,    0.3, -999.0
03-12-2023, 00:46:12,    177,    0.0,   -2.0,   0.00,   0.00, 1010.1,    0.3, -999.0
03-12-2023, 00:46:22,    178,    0.0,   -1.9,   0.00,   0.00, 1010.0,    0.3, -999.0
03-12-2023, 00:46:31,    178,    0.0,   -2.0,   0.00,   0.00, 1010.0,    0.5, -999.0
03-12-2023, 00:46:41,    178,    0.0,   -1.9,   0.00,   0.01, 1010.0,    0.3, -999.0
03-12-2023, 00:46:52,    178,    0.0,   -1.9,   0.01,   0.00, 1010.1,    0.6, -999.0